Find MSX

NORAD ID: 23851 Int'l Des: 1996-024 Owner: BMDO Country: US operational
LEOCIRCULARRETROGRADESSO

Aktuelle Ansicht

3D-Globus wird geladen...

Über MSX

Beschreibung wird geladen...

Nächste Überflüge

Passes for default location (London). Set your location on the main map for personalized predictions.

Höhenverlauf

Loading altitude history...

Zweizeiliger Elementsatz

1 23851U 96024A 26149.41920756 -.00000158 00000-0 -79479-4 0 9992
2 23851 99.0428 86.7690 0006888 293.6101 66.4339 13.98391493535724
Epoch: 29. Mai 2026 • Age: 17 hours

Aktueller Status

Höhe 902.2 km
Geschwindigkeit 7.40 km/s
Subsatellitenpunkt -13.98°S, 154.59°E
Startdatum 24. Apr. 1996
Alter 30 years
Typ other

Technische Details

Klassifizierung Payload
Masse 2782.00 kg
Trockenmasse 2704.00 kg
Gesamtmasse 2782.00 kg
Länge 5.10 m
Durchmesser 1.80 m
Spannweite 5.10 m
Form Box + 2 Pan
Hersteller APL
Bus-Typ MSX
Phasenstatus In Orbit
Besitzer/Staat BMDO/US

Most Searched